This demonstration page uses our WeatherBlox Daily Observations layout. Learn more.

Left ArrowRight Arrow

38.83388, -104.82136

Hourly Observations for May 22, 2018

Temp ( °F °C ) Dew Point ( °F °C ) Humidity (%) Winds ( mph kmh ) Pressure ( in mb ) Visibility ( mi km ) Precip ( " mm )
12:58 am 00:58 Mostly Cloudy 55 13 33 0.8 44 44 S 3 6 29.51 999 10 16 0.00 0.00
1:58 am 01:58 Mostly Clear 54 12.3 35 1.5 48 48 Calm 29.49 999 10 16 0.00 0.00
2:58 am 02:58 Clear 55 12.6 35 1.4 47 47 WNW 3 6 29.49 999 10 16 0.00 0.00
3:58 am 03:58 Partly Cloudy 53 11.4 35 1.4 51 51 Calm 29.52 1000 10 16 0.00 0.00
4:58 am 04:58 Partly Cloudy 56 13.1 33 0.4 42 42 NW 8 13 29.52 1000 10 16 0.00 0.00
5:58 am 05:58 Mostly Sunny 55 12.7 34 1.1 45 45 Calm 29.52 1000 10 16 0.00 0.00
6:58 am 06:58 Mostly Sunny 56 13.4 35 1.4 44 44 Calm 29.55 1001 10 16 0.00 0.00
7:58 am 07:58 Sunny 58 14.5 37 2.9 46 46 Calm 29.54 1001 10 16 0.00 0.00
8:58 am 08:58 Sunny 60 15.6 39 4.1 47 47 ESE 6 9 29.53 1000 10 16 0.00 0.00
9:58 am 09:58 Sunny 61 16.2 37 2.9 41 41 SSE 9 15 29.54 1000 10 16 0.00 0.00
10:58 am 10:58 Sunny 65 18.6 37 2.6 35 35 SE 15 24 29.51 999 10 16 0.00 0.00
11:58 am 11:58 Sunny 69 20.5 40 4.4 35 35 SE 12 19 29.49 999 10 16 0.00 0.00
12:58 pm 12:58 Sunny 71 21.6 37 2.7 29 29 SE 18 30 29.47 998 10 16 0.00 0.00
1:58 pm 13:58 Mostly Sunny 73 22.7 34 1 24 24 SE 25 41 29.41 996 10 16 0.00 0.00
2:38 pm 14:38 Mostly Sunny 73 23 34 1 23 23 S 20 31 29.43 997 10 16 0.00 0.00
2:58 pm 14:58 Mostly Sunny 71 21.7 32 0.1 24 24 SSE 20 31 29.44 997 10 16 0.00 0.00
3:58 pm 15:58 Partly Cloudy 73 22.5 32 -0.1 22 22 SE 20 31 29.42 996 10 16 0.00 0.00
4:58 pm 16:58 Mostly Cloudy 70 21.2 32 -0.1 24 24 SSE 17 28 29.43 997 10 16 0.00 0.00
5:58 pm 17:58 Sunny 70 20.9 29 -1.8 22 22 SSE 9 15 29.41 996 10 16 0.00 0.00
6:58 pm 18:58 Partly Cloudy 68 19.9 34 0.9 28 28 SSW 6 9 29.43 997 10 16 0.00 0.00
7:58 pm 19:58 Mostly Cloudy 68 20 31 -0.7 25 25 S 5 7 29.44 997 10 16 0.00 0.00
8:58 pm 20:58 Partly Cloudy 63 17.1 39 3.7 41 41 SSW 10 17 29.49 999 10 16 0.00 0.00
9:58 pm 21:58 Mostly Cloudy 62 16.4 42 5.3 48 48 SE 10 17 29.52 1000 10 16 0.00 0.00
10:58 pm 22:58 Mostly Clear 60 15.7 40 4.3 47 47 WNW 6 9 29.50 999 10 16 0.00 0.00
11:58 pm 23:58 Mostly Clear 60 15.3 42 5.8 53 53 NW 10 17 29.49 999 10 16 0.00 0.00

Powered by AerisWeather